THY9UT LROP-LTFM

Flight info

Callsign THY9UT
Flight time 0h 58m
Altitude 37000
Route IDARU DCT NONQE DCT MAXOV DCT MATEL L620 RIXEN
Aircraft A320/M-SDE3FGHIRWY/LB1

Departure

Time 2026-05-05 07:21
Airport Bucharest Henri Coandă International Airport (LROP)

Arrival

Time 2026-05-05 08:20
Airport İstanbul Airport (LTFM)
Time Latitude Longitude Altitude Speed Heading
2026-05-05 06:40 44.57137 26.08059 318 ft 0 kts 174°
2026-05-05 07:07 44.57148 26.08057 320 ft 4 kts 171°
2026-05-05 07:07 44.57173 26.08047 320 ft 4 kts 148°
2026-05-05 07:08 44.57190 26.08024 318 ft 4 kts 96°
2026-05-05 07:08 44.57190 26.08014 320 ft 0 kts 84°
2026-05-05 07:16 44.57190 26.08015 320 ft 1 kts 84°
2026-05-05 07:16 44.57192 26.08032 320 ft 3 kts 84°
2026-05-05 07:16 44.57195 26.08073 320 ft 5 kts 84°
2026-05-05 07:17 44.57200 26.08138 320 ft 8 kts 84°
2026-05-05 07:17 44.57206 26.08225 320 ft 10 kts 85°
2026-05-05 07:17 44.57210 26.08336 320 ft 12 kts 115°
2026-05-05 07:17 44.57125 26.08375 320 ft 14 kts 172°
2026-05-05 07:18 44.57017 26.08389 320 ft 17 kts 175°
2026-05-05 07:18 44.56917 26.08400 320 ft 10 kts 183°
2026-05-05 07:18 44.56859 26.08338 320 ft 12 kts 244°
2026-05-05 07:18 44.56819 26.08220 320 ft 15 kts 244°
2026-05-05 07:19 44.56772 26.08079 319 ft 17 kts 251°
2026-05-05 07:19 44.56742 26.07933 320 ft 16 kts 255°
2026-05-05 07:19 44.56717 26.07807 319 ft 14 kts 255°
2026-05-05 07:19 44.56673 26.07674 320 ft 16 kts 209°
2026-05-05 07:20 44.56568 26.07676 320 ft 16 kts 173°
2026-05-05 07:20 44.56475 26.07726 319 ft 14 kts 110°
2026-05-05 07:20 44.56482 26.07876 320 ft 23 kts 83°
2026-05-05 07:20 44.56527 26.08453 323 ft 94 kts 84°
2026-05-05 07:21 44.56614 26.09629 320 ft 146 kts 84°
2026-05-05 07:21 44.56733 26.11148 658 ft 161 kts 84°
2026-05-05 07:21 44.56857 26.12717 1301 ft 164 kts 84°
2026-05-05 07:21 44.56990 26.14316 1977 ft 165 kts 84°
2026-05-05 07:22 44.57104 26.15963 2439 ft 181 kts 84°
2026-05-05 07:22 44.57251 26.17813 2781 ft 203 kts 82°
2026-05-05 07:22 44.57414 26.19909 3194 ft 229 kts 83°
2026-05-05 07:22 44.57587 26.22244 3672 ft 252 kts 82°
2026-05-05 07:23 44.57768 26.24736 4547 ft 260 kts 81°
2026-05-05 07:23 44.57951 26.27266 5506 ft 264 kts 80°
2026-05-05 07:23 44.58133 26.29796 6519 ft 264 kts 79°
2026-05-05 07:23 44.58317 26.32358 7470 ft 265 kts 80°
2026-05-05 07:24 44.58504 26.34936 8419 ft 266 kts 80°
2026-05-05 07:24 44.58693 26.37517 9353 ft 267 kts 80°
2026-05-05 07:24 44.58882 26.40118 10244 ft 270 kts 80°
2026-05-05 07:24 44.59083 26.42841 10592 ft 292 kts 80°
2026-05-05 07:25 44.59305 26.45789 10809 ft 316 kts 80°
2026-05-05 07:25 44.59537 26.48908 11290 ft 327 kts 81°
2026-05-05 07:25 44.59766 26.52070 11936 ft 333 kts 81°
2026-05-05 07:25 44.59997 26.55320 12620 ft 337 kts 81°
2026-05-05 07:26 44.60229 26.58616 13330 ft 342 kts 81°
2026-05-05 07:26 44.60464 26.61952 14003 ft 346 kts 81°
2026-05-05 07:26 44.60703 26.65334 14621 ft 350 kts 81°
2026-05-05 07:26 44.60944 26.68752 15228 ft 354 kts 81°
2026-05-05 07:27 44.61184 26.72205 15823 ft 357 kts 81°
2026-05-05 07:27 44.61424 26.75678 16415 ft 361 kts 81°
2026-05-05 07:27 44.61666 26.79193 17010 ft 364 kts 81°
2026-05-05 07:27 44.61958 26.82688 17592 ft 366 kts 76°
2026-05-05 07:28 44.62430 26.86217 18188 ft 369 kts 76°
2026-05-05 07:28 44.62853 26.89785 18726 ft 375 kts 82°
2026-05-05 07:28 44.62742 26.93476 19248 ft 384 kts 97°
2026-05-05 07:28 44.61933 26.97091 19775 ft 394 kts 112°
2026-05-05 07:29 44.60433 27.00357 20311 ft 404 kts 127°
2026-05-05 07:29 44.58317 27.02997 20825 ft 414 kts 143°
2026-05-05 07:29 44.55850 27.05116 21320 ft 418 kts 146°
2026-05-05 07:29 44.53385 27.07191 21817 ft 421 kts 146°
2026-05-05 07:30 44.50867 27.09306 22302 ft 424 kts 146°
2026-05-05 07:30 44.45789 27.13583 23255 ft 429 kts 146°
2026-05-05 07:30 44.43221 27.15747 23715 ft 433 kts 146°
2026-05-05 07:31 44.40634 27.17924 24110 ft 435 kts 146°
2026-05-05 07:31 44.38037 27.20105 24512 ft 438 kts 146°
2026-05-05 07:31 44.35414 27.22307 24882 ft 441 kts 146°
2026-05-05 07:31 44.32775 27.24517 25266 ft 444 kts 146°
2026-05-05 07:32 44.30153 27.26707 25639 ft 446 kts 146°
2026-05-05 07:32 44.27492 27.28933 26015 ft 449 kts 146°
2026-05-05 07:32 44.24810 27.31174 26395 ft 451 kts 146°
2026-05-05 07:32 44.22112 27.33425 26787 ft 453 kts 146°
2026-05-05 07:33 44.19396 27.35694 27161 ft 456 kts 147°
2026-05-05 07:33 44.16671 27.37966 27539 ft 459 kts 147°
2026-05-05 07:33 44.13926 27.40254 27936 ft 461 kts 147°
2026-05-05 07:33 44.11163 27.42550 28320 ft 463 kts 147°
2026-05-05 07:34 44.08387 27.44851 28697 ft 466 kts 147°
2026-05-05 07:34 44.05603 27.47156 29062 ft 468 kts 147°
2026-05-05 07:34 44.02837 27.49447 29431 ft 470 kts 147°
2026-05-05 07:34 44.00029 27.51771 29947 ft 469 kts 147°
2026-05-05 07:35 43.97228 27.54089 30446 ft 468 kts 147°
2026-05-05 07:35 43.94447 27.56388 30924 ft 466 kts 147°
2026-05-05 07:35 43.91666 27.58680 31431 ft 464 kts 147°
2026-05-05 07:35 43.88893 27.60962 31886 ft 463 kts 147°
2026-05-05 07:36 43.86129 27.63236 32360 ft 462 kts 148°
2026-05-05 07:36 43.83377 27.65495 32834 ft 461 kts 148°
2026-05-05 07:36 43.80661 27.67719 33303 ft 459 kts 148°
2026-05-05 07:36 43.77912 27.69968 33788 ft 458 kts 148°
2026-05-05 07:37 43.75175 27.72209 34234 ft 457 kts 148°
2026-05-05 07:37 43.72449 27.74442 34628 ft 456 kts 148°
2026-05-05 07:37 43.69727 27.76669 35084 ft 453 kts 148°
2026-05-05 07:37 43.67021 27.78883 35476 ft 452 kts 148°
2026-05-05 07:38 43.64308 27.81103 35730 ft 454 kts 148°
2026-05-05 07:38 43.61727 27.83596 35991 ft 454 kts 139°
2026-05-05 07:38 43.59437 27.86589 36276 ft 454 kts 130°
2026-05-05 07:38 43.57475 27.89917 36561 ft 453 kts 126°
2026-05-05 07:39 43.55535 27.93343 36855 ft 454 kts 127°
2026-05-05 07:39 43.53590 27.96764 37048 ft 455 kts 127°
2026-05-05 07:39 43.49653 28.03652 37075 ft 459 kts 127°
2026-05-05 07:40 43.45705 28.10536 37066 ft 459 kts 127°
2026-05-05 07:40 43.41774 28.17394 37056 ft 459 kts 127°
2026-05-05 07:41 43.37822 28.24276 37056 ft 459 kts 127°
2026-05-05 07:41 43.33851 28.31160 37059 ft 459 kts 127°
2026-05-05 07:42 43.29883 28.38022 37059 ft 460 kts 127°
2026-05-05 07:42 43.25901 28.44893 37058 ft 461 kts 127°
2026-05-05 07:43 43.21918 28.51765 37075 ft 461 kts 127°
2026-05-05 07:43 43.17950 28.58594 37083 ft 461 kts 127°
2026-05-05 07:44 43.13952 28.65456 37085 ft 462 kts 127°
2026-05-05 07:44 43.09833 28.72199 37094 ft 463 kts 135°
2026-05-05 07:45 43.07323 28.74955 37094 ft 464 kts 147°
2026-05-05 07:45 43.04492 28.77026 37101 ft 464 kts 158°
2026-05-05 07:45 42.98275 28.78942 37094 ft 462 kts 179°
2026-05-05 07:46 42.91883 28.78809 36974 ft 459 kts 182°
2026-05-05 07:46 42.85507 28.78632 36816 ft 458 kts 181°
2026-05-05 07:47 42.79162 28.78469 36662 ft 456 kts 182°
2026-05-05 07:47 42.72861 28.78309 36493 ft 455 kts 182°
2026-05-05 07:48 42.69687 28.78227 35995 ft 455 kts 181°
2026-05-05 07:48 42.66546 28.78144 35551 ft 452 kts 181°
2026-05-05 07:48 42.63414 28.78061 35138 ft 448 kts 181°
2026-05-05 07:48 42.60311 28.77980 34734 ft 444 kts 181°
2026-05-05 07:49 42.57241 28.77900 34363 ft 440 kts 181°
2026-05-05 07:49 42.54202 28.77819 33842 ft 432 kts 181°
2026-05-05 07:49 42.51217 28.77738 33022 ft 426 kts 182°
2026-05-05 07:49 42.48275 28.77657 32220 ft 420 kts 182°
2026-05-05 07:50 42.45411 28.77581 31469 ft 414 kts 182°
2026-05-05 07:50 42.42559 28.77510 30738 ft 408 kts 182°
2026-05-05 07:50 42.39739 28.77438 29995 ft 403 kts 183°
2026-05-05 07:50 42.36956 28.77365 29142 ft 398 kts 183°
2026-05-05 07:51 42.34201 28.77289 28323 ft 394 kts 183°
2026-05-05 07:51 42.31478 28.77214 27548 ft 390 kts 182°
2026-05-05 07:51 42.28779 28.77143 26779 ft 386 kts 182°
2026-05-05 07:51 42.26107 28.77076 26022 ft 382 kts 182°
2026-05-05 07:52 42.23456 28.77011 25280 ft 379 kts 182°
2026-05-05 07:52 42.20875 28.76946 24560 ft 376 kts 181°
2026-05-05 07:52 42.18272 28.76880 23833 ft 373 kts 182°
2026-05-05 07:52 42.15686 28.76811 23031 ft 370 kts 181°
2026-05-05 07:53 42.13118 28.76744 22192 ft 368 kts 181°
2026-05-05 07:53 42.10577 28.76681 21394 ft 366 kts 181°
2026-05-05 07:53 42.08037 28.76617 20612 ft 364 kts 180°
2026-05-05 07:53 42.05516 28.76625 19895 ft 361 kts 179°
2026-05-05 07:54 42.03019 28.76711 19204 ft 358 kts 178°
2026-05-05 07:54 42.00546 28.76836 18503 ft 355 kts 177°
2026-05-05 07:54 41.98115 28.76968 17732 ft 354 kts 177°
2026-05-05 07:54 41.95660 28.77092 17000 ft 351 kts 177°
2026-05-05 07:55 41.93228 28.77203 16298 ft 348 kts 177°
2026-05-05 07:55 41.92416 28.77238 16073 ft 347 kts 177°
2026-05-05 07:55 41.88949 28.77379 15123 ft 342 kts 177°
2026-05-05 07:55 41.86582 28.77469 14489 ft 339 kts 177°
2026-05-05 07:56 41.84232 28.77556 13868 ft 336 kts 177°
2026-05-05 07:56 41.81910 28.77641 13192 ft 333 kts 177°
2026-05-05 07:56 41.79604 28.77728 12514 ft 330 kts 178°
2026-05-05 07:56 41.77346 28.77384 11865 ft 326 kts 199°
2026-05-05 07:57 41.75397 28.75942 11256 ft 318 kts 224°
2026-05-05 07:57 41.73991 28.73725 10608 ft 312 kts 237°
2026-05-05 07:57 41.72715 28.71383 9984 ft 310 kts 237°
2026-05-05 07:57 41.71452 28.69059 9329 ft 307 kts 237°
2026-05-05 07:58 41.70218 28.66791 8700 ft 304 kts 237°
2026-05-05 07:58 41.68984 28.64517 8085 ft 301 kts 237°
2026-05-05 07:58 41.67757 28.62261 7476 ft 299 kts 237°
2026-05-05 07:58 41.66530 28.60007 7125 ft 299 kts 237°
2026-05-05 07:59 41.65307 28.57770 6801 ft 297 kts 237°
2026-05-05 07:59 41.64096 28.55553 6485 ft 296 kts 237°
2026-05-05 07:59 41.62887 28.53343 6258 ft 292 kts 237°
2026-05-05 07:59 41.61685 28.51148 6744 ft 293 kts 237°
2026-05-05 08:00 41.60477 28.48945 7725 ft 295 kts 237°
2026-05-05 08:00 41.59276 28.46756 8641 ft 299 kts 237°
2026-05-05 08:00 41.58037 28.44494 9527 ft 304 kts 238°
2026-05-05 08:00 41.56778 28.42200 10372 ft 309 kts 237°
2026-05-05 08:01 41.55498 28.39876 11164 ft 312 kts 237°
2026-05-05 08:01 41.54216 28.37555 11292 ft 311 kts 237°
2026-05-05 08:01 41.52924 28.35233 10893 ft 312 kts 236°
2026-05-05 08:01 41.51359 28.33225 10547 ft 316 kts 215°
2026-05-05 08:02 41.49343 28.32094 10223 ft 316 kts 191°
2026-05-05 08:02 41.47201 28.32028 10006 ft 313 kts 172°
2026-05-05 08:02 41.45024 28.32330 9861 ft 315 kts 172°
2026-05-05 08:02 41.42840 28.32626 9723 ft 315 kts 172°
2026-05-05 08:03 41.40660 28.32917 9590 ft 315 kts 173°
2026-05-05 08:03 41.38489 28.33203 9458 ft 314 kts 173°
2026-05-05 08:03 41.36318 28.33492 9323 ft 313 kts 173°
2026-05-05 08:03 41.34155 28.33785 9195 ft 312 kts 173°
2026-05-05 08:04 41.32001 28.34075 9054 ft 311 kts 173°
2026-05-05 08:04 41.29883 28.34358 8924 ft 310 kts 173°
2026-05-05 08:04 41.27734 28.34645 8792 ft 310 kts 173°
2026-05-05 08:04 41.25592 28.34929 8659 ft 309 kts 173°
2026-05-05 08:05 41.23458 28.35213 8531 ft 308 kts 173°
2026-05-05 08:05 41.21335 28.35497 8405 ft 307 kts 173°
2026-05-05 08:05 41.19210 28.35780 8274 ft 306 kts 173°
2026-05-05 08:05 41.17093 28.36062 8145 ft 306 kts 173°
2026-05-05 08:06 41.14980 28.36343 7934 ft 306 kts 173°
2026-05-05 08:06 41.12860 28.36624 7515 ft 308 kts 173°
2026-05-05 08:06 41.10740 28.36906 7126 ft 309 kts 173°
2026-05-05 08:06 41.08652 28.37184 6846 ft 301 kts 173°
2026-05-05 08:07 41.06566 28.37460 6332 ft 301 kts 173°
2026-05-05 08:07 41.04518 28.37732 5767 ft 296 kts 173°
2026-05-05 08:07 41.02484 28.38002 5333 ft 287 kts 173°
2026-05-05 08:07 41.00546 28.38260 5209 ft 276 kts 173°
2026-05-05 08:08 40.98724 28.38824 5085 ft 264 kts 153°
2026-05-05 08:08 40.97242 28.40094 4991 ft 249 kts 132°
2026-05-05 08:08 40.96201 28.41850 5000 ft 241 kts 115°
2026-05-05 08:08 40.95379 28.43785 5013 ft 241 kts 115°
2026-05-05 08:09 40.94558 28.45686 5014 ft 241 kts 115°
2026-05-05 08:09 40.93729 28.47592 5013 ft 241 kts 116°
2026-05-05 08:09 40.92893 28.49513 5017 ft 241 kts 116°
2026-05-05 08:09 40.92062 28.51432 5013 ft 241 kts 116°
2026-05-05 08:10 40.91228 28.53360 5006 ft 241 kts 116°
2026-05-05 08:10 40.90399 28.55275 5006 ft 242 kts 116°
2026-05-05 08:10 40.89706 28.57273 5010 ft 237 kts 101°
2026-05-05 08:10 40.89514 28.59400 5010 ft 231 kts 82°
2026-05-05 08:11 40.89809 28.61424 5008 ft 226 kts 66°
2026-05-05 08:11 40.90326 28.63374 5011 ft 227 kts 66°
2026-05-05 08:11 40.90837 28.65342 5014 ft 226 kts 67°
2026-05-05 08:11 40.91359 28.67300 5014 ft 225 kts 61°
2026-05-05 08:12 40.92204 28.69007 5010 ft 221 kts 43°
2026-05-05 08:12 40.93393 28.70235 5015 ft 218 kts 27°
2026-05-05 08:12 40.94728 28.71201 5008 ft 219 kts 27°
2026-05-05 08:12 40.96057 28.72176 5013 ft 218 kts 27°
2026-05-05 08:13 40.97385 28.73073 5008 ft 207 kts 17°
2026-05-05 08:13 40.98741 28.73311 5010 ft 200 kts 360°
2026-05-05 08:13 41.00130 28.73281 5019 ft 199 kts 359°
2026-05-05 08:13 41.01488 28.73253 5009 ft 192 kts 359°
2026-05-05 08:14 41.02808 28.73228 4891 ft 188 kts 360°
2026-05-05 08:14 41.04101 28.73203 4679 ft 187 kts 359°
2026-05-05 08:14 41.05405 28.73178 4427 ft 188 kts 359°
2026-05-05 08:14 41.06713 28.73153 4177 ft 190 kts 359°
2026-05-05 08:15 41.08043 28.73123 3915 ft 193 kts 359°
2026-05-05 08:15 41.09375 28.73101 3637 ft 191 kts 360°
2026-05-05 08:15 41.10658 28.73076 3407 ft 184 kts 359°
2026-05-05 08:15 41.11916 28.73052 3175 ft 175 kts 359°
2026-05-05 08:16 41.13099 28.73029 2934 ft 167 kts 359°
2026-05-05 08:16 41.14219 28.73008 2708 ft 157 kts 359°
2026-05-05 08:16 41.15267 28.72987 2504 ft 146 kts 359°
2026-05-05 08:16 41.16246 28.72969 2336 ft 136 kts 359°
2026-05-05 08:17 41.17173 28.72951 2134 ft 132 kts 359°
2026-05-05 08:17 41.18080 28.72933 1954 ft 131 kts
2026-05-05 08:17 41.18977 28.72916 1761 ft 131 kts 359°
2026-05-05 08:17 41.19889 28.72898 1595 ft 132 kts 359°
2026-05-05 08:18 41.20800 28.72880 1426 ft 130 kts 360°
2026-05-05 08:18 41.21714 28.72870 1268 ft 132 kts
2026-05-05 08:18 41.22629 28.72871 1094 ft 130 kts
2026-05-05 08:18 41.23532 28.72852 872 ft 129 kts 358°
2026-05-05 08:19 41.24421 28.72821 670 ft 127 kts 358°
2026-05-05 08:19 41.25305 28.72794 499 ft 127 kts 358°
2026-05-05 08:19 41.26186 28.72776 400 ft 128 kts 358°
2026-05-05 08:19 41.26996 28.72745 332 ft 107 kts 356°
2026-05-05 08:20 41.27605 28.72733 333 ft 64 kts
2026-05-05 08:20 41.27875 28.72740 332 ft 18 kts
2026-05-05 08:20 41.27995 28.72785 330 ft 19 kts 24°
2026-05-05 08:20 41.28095 28.72852 333 ft 3 kts 27°
2026-05-05 08:21 41.28103 28.72857 334 ft 3 kts 27°
2026-05-05 08:21 41.28128 28.72880 333 ft 6 kts 44°
2026-05-05 08:21 41.28129 28.72938 333 ft 8 kts 114°
2026-05-05 08:21 41.28076 28.72960 331 ft 10 kts 179°
2026-05-05 08:22 41.28000 28.72962 330 ft 12 kts 179°
2026-05-05 08:22 41.27907 28.72964 332 ft 15 kts 179°
2026-05-05 08:22 41.27798 28.72966 332 ft 17 kts 179°
2026-05-05 08:22 41.27703 28.72968 331 ft 7 kts 179°
2026-05-05 08:23 41.27669 28.72969 332 ft 4 kts 179°
2026-05-05 08:23 41.27631 28.72970 330 ft 7 kts 179°
2026-05-05 08:23 41.27573 28.72972 331 ft 10 kts 179°
2026-05-05 08:23 41.27496 28.72975 333 ft 12 kts 178°
2026-05-05 08:24 41.27402 28.72978 333 ft 15 kts 178°
2026-05-05 08:24 41.27291 28.72983 333 ft 17 kts 178°
2026-05-05 08:24 41.27164 28.72987 333 ft 20 kts 179°
2026-05-05 08:24 41.27018 28.72989 331 ft 19 kts 179°
2026-05-05 08:25 41.26889 28.72991 333 ft 19 kts 179°
2026-05-05 08:25 41.26764 28.72993 331 ft 12 kts 179°
2026-05-05 08:25 41.26674 28.72998 333 ft 14 kts 182°
2026-05-05 08:25 41.26602 28.73063 333 ft 15 kts 104°
2026-05-05 08:26 41.26599 28.73213 329 ft 18 kts 89°
2026-05-05 08:26 41.26598 28.73322 330 ft 11 kts 102°
2026-05-05 08:26 41.26536 28.73395 334 ft 13 kts 124°
2026-05-05 08:26 41.26547 28.73479 330 ft 3 kts 70°
2026-05-05 08:27 41.26553 28.73503 333 ft 0 kts 73°